sat.trackr.live / text

‹ back to catalog

STARLINK-33571

NORAD 63386 · 2025-063Z

PAYLOAD ACTIVE UNKNOWN

§ Identity

Operator
Country
US
Launch date
2025-03-26
Launch site
AFWTR
Launch vehicle
Mass (kg)
RCS (m²)

Purposes: comms

External: N2YO · Heavens-Above · Gunter

§ Orbital elements

Epoch: 2026-09-20T08:02:26.190240Z

Period
93.85 min
Inclination
53.1586°
Eccentricity
0.0001136
Mean motion
15.34405341 rev/d
Perigee alt
461.9 km
Apogee alt
463.5 km
Semi-major
6,840.8 km
B*
5.5928e-4
RAAN
234.5088°
Arg perigee
72.6448°
Mean anomaly
287.4679°
Rev number
8,442

§ Raw data

STARLINK-335711 63386U 25063Z   26263.33502535  .00018570  00000+0  55928-3 0  99992 63386  53.1586 234.5088 0001136  72.6448 287.4679 15.34405341 84429

JSON: /api/v1/satellites/63386 · /tle

For live sub-satellite position, see the globe view (requires WebGL).

§ Visibility from observer

Set your observer location to see the next 7 days of passes ≥ 10°. The values pass through the URL so the page stays shareable.

No JS? Fill the form by hand. The geolocation button needs JavaScript.